SCP
0 0 0 0 0 0 0 0 0 0 0 0 0 0 0 0 0 0 0 0 0 0 0 0 0 0 0 0 0 0 0 0 0 0 1 1 1 1
0 0 0 0 0 0 0 0 0 0 0 0 0 0 0 0 0 0 0 0 0 0 0 0 0 0 0 0 0 0 0 0 0 0 0 1 1 1
0 0 0 0 0 0 0 0 0 0 0 0 0 0 0 0 0 0 0 0 0 0 0 0 0 0 0 0 0 0 0 0 0 0 0 0 0 0
0 0 0 0 0 0 0 0 0 0 0 0 0 0 0 0 0 0 0 0 0 0 0 0 0 0 0 0 0 0 0 0 0 0 0 0 1 1
0 0 0 0 0 0 0 0 0 0 0 0 0 0 0 0 0 0 0 0 0 0 0 0 0 0 0 0 0 0 0 0 0 0 0 0 0 1
0 0 0 0 0 0 0 0 0 0 0 0 0 0 0 0 0 0 0 0 0 0 0 0 0 0 0 0 0 0 0 0 0 0 0 0 0 0
0 0 0 0 0 0 0 0 0 0 0 0 0 0 0 0 0 0 0 0 0 0 0 0 0 0 0 0 0 0 0 0 0 0 0 0 0 0
0 0 0 0 0 0 0 0 0 0 0 0 0 0 0 0 0 0 0 0 0 0 0 0 0 0 0 0 0 0 0 0 0 0 0 0 0 0
0 0 0 0 0 0 0 0 0 0 0 0 0 0 0 0 0 0 0 0 0 0 0 0 0 0 0 0 0 0 0 0 0 0 0 0 0 0
0 0 0 0 0 0 0 0 0 0 0 0 0 0 0 0 0 0 0 0 0 0 0 0 0 0 0 0 0 0 0 0 0 0 0 0 0 0
0 0 0 0 0 0 0 0 0 0 0 0 0 0 0 0 0 0 0 0 0 0 0 0 0 0 0 0 0 0 0 0 0 0 0 0 0 0
0 0 0 0 0 0 0 0 0 0 0 0 0 0 0 0 0 0 0 0 0 0 0 0 0 0 0 0 0 0 0 0 0 0 0 0 0 0
0 0 0 0 0 0 0 0 0 0 0 0 0 0 0 0 0 0 0 0 0 0 0 0 0 0 0 0 0 0 0 0 0 0 0 0 0 0
0 0 0 0 0 0 0 0 0 0 0 0 0 0 0 0 0 0 0 0 0 0 0 0 0 0 0 0 0 0 0 0 0 0 0 0 0 0
0 0 0 0 0 0 0 0 0 0 0 0 0 0 0 0 0 0 0 0 0 0 0 0 0 0 0 0 0 0 0 0 0 0 0 0 0 0
0 0 0 0 0 0 0 0 0 0 0 0 0 0 0 0 0 0 0 0 0 0 0 0 0 0 0 0 0 0 0 0 0 0 0 0 0 0
0 0 0 0 0 0 0 0 0 0 0 0 0 0 0 0 0 0 0 0 0 0 0 0 0 0 0 0 0 0 0 0 0 0 0 0 0 0
0 0 0 0 0 0 0 0 0 0 0 0 0 0 0 0 0 0 0 0 0 0 0 0 0 0 0 0 0 0 0 0 0 0 0 0 0 0
0 0 0 0 0 0 0 0 0 0 0 0 0 0 0 0 0 0 0 0 0 0 0 0 0 0 0 0 0 0 0 0 0 0 0 0 0 0
0 0 0 0 0 0 0 0 0 0 0 0 0 0 0 0 0 0 0 0 0 0 0 0 0 0 0 0 0 0 0 0 0 0 0 0 0 0
0 0 0 0 0 0 0 0 0 0 0 0 0 0 0 0 0 0 0 0 0 0 0 0 0 0 0 0 0 0 0 0 0 0 0 0 0 0
0 0 0 0 0 0 0 0 0 0 0 0 0 0 0 0 0 0 0 0 0 0 0 0 0 0 0 0 0 0 0 0 0 0 0 0 0 0
0 0 0 0 0 0 0 0 0 0 0 0 0 0 0 0 0 0 0 0 0 0 0 0 0 0 0 0 0 0 0 0 0 0 0 0 0 0
Wind_Speed
6 6 5 4 3 3 4 5 5 4 5 4 3 3 3 2 4 3 3 5 6 6 6 6 5 5 5 5 5 5 6 6 7 7 8 8 8 9
5 6 5 4 4 4 4 4 4 5 5 4 4 3 3 3 5 3 4 7 7 7 7 7 6 6 6 6 6 6 6 7 8 8 8 9 9 9
5 6 6 5 5 4 4 4 4 4 5 4 3 3 3 3 3 3 3 4 4 7 7 8 7 7 6 6 6 6 7 8 8 8 9 9 10 10
7 6 7 5 6 5 5 6 5 5 5 6 4 3 4 4 4 3 4 4 3 7 8 8 8 7 7 7 7 7 7 8 8 9 9 10 10 10
7 7 7 7 7 6 6 6 5 4 5 5 5 3 3 3 3 3 4 3 3 5 6 8 8 8 8 8 8 8 8 8 9 9 10 10 10 11
7 7 8 8 9 8 7 7 6 5 5 5 5 4 3 3 3 3 3 3 3 3 5 6 7 8 9 9 9 8 9 9 10 10 10 10 10 11
6 7 8 9 11 9 7 7 7 6 6 5 5 4 4 4 4 4 5 3 3 3 3 4 4 4 5 7 9 9 10 10 10 10 10 10 11 11
6 6 7 9 11 13 13 12 12 10 9 7 6 7 7 6 5 5 4 3 3 3 3 4 3 4 4 4 9 11 11 11 10 10 10 10 11 11
6 6 6 7 9 7 10 12 13 15 14 9 9 9 8 8 7 7 6 6 5 3 3 4 3 5 4 6 11 11 11 11 11 10 10 11 11 11
6 7 7 7 7 8 8 8 8 9 11 8 8 8 7 7 8 8 7 4 2 3 3 4 3 4 4 4 10 11 11 11 10 10 10 10 10 10
6 6 6 6 9 11 8 8 8 7 9 12 11 9 11 10 7 5 5 4 4 3 3 3 3 3 3 4 6 9 10 9 9 9 9 9 8 8
5 6 8 8 9 10 7 7 8 7 6 7 7 7 7 8 10 7 6 5 3 3 4 3 2 1 3 3 3 3 4 8 9 9 9 8 8 4
5 4 5 9 10 10 8 6 9 7 6 6 5 4 4 5 6 5 6 6 5 4 4 3 3 2 3 3 3 3 3 3 4 5 7 8 8 6
5 4 5 9 10 10 7 7 9 6 3 4 4 4 4 4 4 5 5 4 4 4 4 4 3 3 3 3 3 3 2 3 3 3 3 6 7 9
5 8 8 9 8 6 7 8 6 4 4 4 5 4 4 4 3 3 3 3 2 2 3 4 4 3 3 4 3 3 3 3 3 3 3 3 3 3
5 7 9 8 6 6 6 4 3 4 4 5 4 3 3 3 4 3 3 3 2 2 2 3 4 4 4 4 4 4 3 3 3 3 3 3 3 3
4 3 2 2 3 3 2 3 3 3 4 3 3 4 3 3 3 3 3 3 3 3 2 1 1 2 3 4 4 4 4 3 3 3 3 4 4 4
4 2 2 2 3 3 3 3 3 3 4 3 4 4 4 4 4 3 3 4 4 3 3 2 1 0 1 3 5 5 4 3 3 3 3 4 5 4
3 2 2 3 3 3 3 3 3 3 3 3 4 4 4 4 4 4 4 3 4 4 3 3 3 3 3 4 3 5 4 3 2 3 3 4 5 5
2 2 2 2 2 2 3 3 3 3 3 3 3 3 4 4 4 4 4 4 4 3 3 3 3 4 5 4 3 3 5 4 3 4 4 3 4 7
2 2 2 2 2 2 2 2 3 3 3 3 3 4 4 4 4 4 4 6 4 3 4 4 4 5 2 1 1 2 3 5 5 4 3 3 4 4
3 3 3 2 2 2 2 2 2 3 3 3 3 3 3 4 4 5 4 4 4 3 3 2 2 2 2 3 4 4 3 3 4 7 8 7 4 4
3 3 3 2 2 2 2 2 3 2 3 3 3 3 4 4 4 4 4 4 3 3 3 2 2 2 2 3 3 3 4 4 3 3 4 8 10 11
Wind_Direction
209 207 208 210 206 204 193 185 182 209 237 230 226 229 227 231 253 254 243 256 263 266 268 274 278 276 268 264 265 271 274 275 275 278 280 282 285 288
212 209 212 212 207 205 203 205 202 199 224 221 225 231 233 246 252 248 246 258 258 258 259 264 264 264 264 262 261 264 269 270 270 272 276 279 281 284
218 215 217 211 208 208 208 210 209 198 221 245 241 224 219 231 252 245 247 238 242 252 255 259 258 257 260 260 261 264 268 269 268 269 272 275 277 280
223 219 221 215 214 211 209 214 213 206 207 229 232 222 223 222 228 239 257 250 238 249 254 256 258 258 257 257 259 263 266 268 268 268 268 271 275 279
225 223 222 215 217 217 216 217 217 219 209 213 225 221 221 220 219 244 249 243 249 247 250 251 259 263 260 260 261 265 266 266 266 265 265 267 271 275
234 227 224 219 219 216 217 217 211 213 211 211 217 216 214 209 202 215 241 229 243 251 246 253 263 264 261 261 261 266 266 264 263 264 264 267 270 271
246 236 232 230 229 225 221 214 207 210 211 212 217 220 216 206 210 211 228 233 245 229 235 250 255 250 248 257 261 262 263 258 260 263 266 267 269 270
247 244 240 237 236 238 235 227 215 210 208 209 217 220 223 216 211 214 212 214 239 213 214 253 240 245 245 241 255 263 258 255 257 261 266 270 272 271
246 245 245 242 239 229 234 236 233 229 222 211 212 220 217 206 201 208 209 213 231 215 207 249 238 246 247 251 259 262 259 257 258 260 265 270 273 273
250 248 243 242 236 229 224 225 227 227 229 225 215 218 217 202 201 205 207 216 232 219 203 237 238 245 258 251 256 260 265 260 260 261 264 268 274 278
256 257 250 239 242 242 227 219 223 229 236 237 235 230 225 221 207 182 184 194 222 223 202 218 244 259 259 252 255 259 264 266 265 267 269 271 278 285
262 261 255 250 244 245 228 211 219 222 216 222 230 232 221 212 210 198 188 195 204 222 201 199 222 242 272 259 256 266 265 266 268 270 273 275 277 280
255 258 257 257 255 251 244 222 227 225 206 205 208 211 207 203 204 206 199 196 200 224 200 188 211 218 232 270 270 256 253 260 264 268 270 273 275 273
252 255 255 257 258 254 248 237 237 229 193 189 199 207 208 207 206 205 202 207 213 220 203 190 207 210 222 252 266 270 261 258 260 268 269 276 281 280
255 256 257 256 257 253 250 248 235 210 197 199 207 212 210 203 194 193 189 189 204 219 207 207 205 211 218 230 242 254 269 266 249 251 260 263 270 277
275 266 261 261 261 254 250 246 227 213 208 209 204 199 186 185 192 188 188 183 193 238 229 210 209 206 226 235 229 243 240 244 246 250 262 270 268 261
267 262 254 245 244 240 233 228 220 214 218 209 200 192 195 197 198 185 180 179 194 212 236 234 215 220 235 229 232 235 237 246 251 252 259 273 270 258
277 248 237 236 242 242 235 230 226 218 214 211 203 196 197 197 199 190 185 187 197 209 215 211 186 334 320 284 235 226 230 240 252 258 259 268 278 273
273 258 248 240 236 233 229 227 227 221 211 208 204 196 192 192 190 191 190 191 200 206 207 199 193 193 224 257 264 228 222 242 251 261 260 257 268 275
292 277 263 252 244 233 227 226 223 213 210 210 203 195 190 188 190 192 193 195 203 206 212 211 208 205 214 230 245 255 247 239 233 250 265 273 275 283
295 283 270 256 252 245 238 234 222 215 212 209 204 196 191 188 194 195 195 210 215 210 216 228 227 225 215 171 247 265 259 250 251 250 252 270 283 285
297 292 284 267 254 245 235 230 234 223 211 211 210 202 196 192 196 198 198 201 209 214 223 233 212 198 194 210 234 252 271 282 276 271 262 249 240 240
299 294 289 285 274 255 240 232 231 237 227 215 208 202 196 197 198 199 200 201 201 207 210 225 227 208 222 222 234 250 263 278 287 289 280 268 261 262